| time (UTC) | temp F | wind direction | speed MPH | gust MPH | rain 1hr in | rain 24hr in | rain mn in | humidity % | barometer mb |
| 20260831110054 | 67 | 165 | 1.0 | 5.0 | 0.13 | 0.47 | 0.17 | 93 | 1013.8 |
| 20260831104543 | 67 | 238 | 1.0 | 7.0 | 0.11 | 0.46 | 0.15 | 93 | 1014.1 |
| 20260831103040 | 67 | 280 | 0.0 | 1.0 | 0.08 | 0.40 | 0.09 | 92 | 1014.3 |
| 20260831101544 | 67 | 279 | 0.0 | 1.0 | 0.05 | 0.37 | 0.06 | 92 | 1014.6 |
| 20260831100037 | 67 | 279 | 0.0 | 1.0 | 0.03 | 0.35 | 0.04 | 92 | 1014.4 |
| 20260831094540 | 67 | 279 | 0.0 | 1.0 | 0.03 | 0.35 | 0.04 | 91 | 1014.4 |
| 20260831093035 | 67 | 213 | 2.0 | 5.0 | 0.00 | 0.32 | 0.01 | 91 | 1014.1 |
| 20260831091545 | 67 | 212 | 0.0 | 3.0 | 0.00 | 0.32 | 0.01 | 92 | 1013.9 |
| 20260831090033 | 67 | 205 | 1.0 | 4.0 | 0.00 | 0.32 | 0.01 | 92 | 1014.0 |
| 20260831084532 | 67 | 208 | 2.0 | 4.0 | 0.00 | 0.32 | 0.01 | 92 | 1014.0 |
| 20260831083031 | 67 | 223 | 0.0 | 2.0 | 0.00 | 0.32 | 0.01 | 92 | 1014.1 |
| 20260831081531 | 67 | 253 | 1.0 | 5.0 | 0.00 | 0.32 | 0.01 | 92 | 1013.8 |
| 20260831080032 | 67 | 225 | 1.0 | 4.0 | 0.00 | 0.32 | 0.01 | 92 | 1013.8 |
| 20260831074528 | 68 | 227 | 0.0 | 3.0 | 0.00 | 0.32 | 0.01 | 92 | 1014.1 |
| 20260831073029 | 67 | 232 | 1.0 | 6.0 | 0.00 | 0.32 | 0.01 | 92 | 1014.0 |
| 20260831071531 | 68 | 231 | 1.0 | 5.0 | 0.00 | 0.32 | 0.01 | 92 | 1014.0 |
| 20260831070025 | 67 | 240 | 1.0 | 3.0 | 0.00 | 0.32 | 0.01 | 92 | 1014.1 |
| 20260831064525 | 68 | 206 | 2.0 | 4.0 | 0.01 | 0.32 | 0.01 | 92 | 1014.2 |
| 20260831063022 | 68 | 201 | 2.0 | 6.0 | 0.01 | 0.32 | 0.01 | 92 | 1014.5 |
| 20260831061521 | 68 | 201 | 2.0 | 7.0 | 0.01 | 0.32 | 0.01 | 92 | 1014.5 |
| 20260831060020 | 68 | 210 | 1.0 | 9.0 | 0.01 | 0.32 | 0.01 | 92 | 1014.5 |
| 20260831054518 | 68 | 215 | 2.0 | 7.0 | 0.00 | 0.31 | 0.00 | 91 | 1014.3 |
| 20260831053022 | 68 | 202 | 3.0 | 6.0 | 0.00 | 0.31 | 0.00 | 91 | 1014.6 |
| 20260831051520 | 68 | 196 | 4.0 | 15.0 | 0.00 | 0.31 | 0.00 | 91 | 1014.4 |
| 20260831050014 | 68 | 215 | 3.0 | 9.0 | 0.00 | 0.31 | 0.00 | 91 | 1014.4 |
| 20260831044514 | 68 | 199 | 4.0 | 9.0 | 0.00 | 0.31 | 0.00 | 91 | 1014.4 |
| 20260831043012 | 68 | 191 | 3.0 | 8.0 | 0.00 | 0.31 | 0.00 | 92 | 1014.5 |
| 20260831041511 | 68 | 211 | 1.0 | 5.0 | 0.00 | 0.31 | 0.00 | 92 | 1014.5 |
| 20260831040022 | 68 | 235 | 2.0 | 5.0 | 0.00 | 0.31 | 0.31 | 92 | 1014.5 |
| 20260831034512 | 68 | 235 | 3.0 | 8.0 | 0.00 | 0.31 | 0.31 | 92 | 1014.5 |
| 20260831033007 | 68 | 219 | 3.0 | 11.0 | 0.00 | 0.31 | 0.31 | 92 | 1014.6 |
| 20260831031506 | 68 | 177 | 3.0 | 8.0 | 0.00 | 0.31 | 0.31 | 92 | 1014.6 |
| 20260831030005 | 68 | 232 | 3.0 | 10.0 | 0.00 | 0.31 | 0.31 | 92 | 1014.4 |
| 20260831024504 | 67 | 138 | 4.0 | 9.0 | 0.00 | 0.31 | 0.31 | 92 | 1014.3 |
| 20260831023006 | 67 | 159 | 3.0 | 9.0 | 0.00 | 0.31 | 0.31 | 92 | 1014.3 |
| 20260831021503 | 67 | 142 | 4.0 | 11.0 | 0.00 | 0.31 | 0.31 | 92 | 1014.3 |
| 20260831020001 | 67 | 155 | 4.0 | 12.0 | 0.00 | 0.31 | 0.31 | 92 | 1014.4 |
| 20260831014501 | 67 | 171 | 7.0 | 12.0 | 0.00 | 0.31 | 0.31 | 92 | 1014.6 |
| 20260831013108 | 67 | 185 | 7.0 | 12.0 | 0.00 | 0.31 | 0.31 | 92 | 1014.6 |
| 20260831011559 | 67 | 156 | 7.0 | 12.0 | 0.00 | 0.31 | 0.31 | 92 | 1014.6 |
| 20260831010059 | 67 | 178 | 5.0 | 11.0 | 0.00 | 0.31 | 0.31 | 92 | 1014.5 |
| 20260831004603 | 67 | 134 | 6.0 | 13.0 | 0.00 | 0.31 | 0.31 | 92 | 1014.5 |
| 20260831003057 | 67 | 192 | 5.0 | 12.0 | 0.00 | 0.31 | 0.31 | 92 | 1014.5 |
| 20260831001556 | 67 | 153 | 5.0 | 16.0 | 0.00 | 0.31 | 0.31 | 92 | 1014.7 |
| 20260831000056 | 67 | 165 | 3.0 | 12.0 | 0.00 | 0.31 | 0.31 | 92 | 1014.7 |
| 20260830234556 | 67 | 171 | 2.0 | 10.0 | 0.00 | 0.31 | 0.31 | 92 | 1014.7 |
| 20260830233055 | 67 | 231 | 3.0 | 8.0 | 0.00 | 0.31 | 0.31 | 92 | 1014.7 |
| 20260830231601 | 67 | 158 | 4.0 | 10.0 | 0.00 | 0.31 | 0.31 | 92 | 1014.8 |
| 20260830230055 | 67 | 213 | 3.0 | 6.0 | 0.00 | 0.31 | 0.31 | 92 | 1015.1 |
| 20260830224558 | 67 | 165 | 2.0 | 9.0 | 0.01 | 0.31 | 0.31 | 92 | 1015.2 |
| 20260830223055 | 67 | 223 | 3.0 | 12.0 | 0.02 | 0.31 | 0.31 | 92 | 1015.3 |
| 20260830221602 | 66 | 158 | 3.0 | 11.0 | 0.02 | 0.31 | 0.31 | 92 | 1015.4 |
| 20260830220055 | 66 | 192 | 3.0 | 6.0 | 0.02 | 0.31 | 0.31 | 92 | 1015.2 |
| 20260830214556 | 66 | 193 | 2.0 | 7.0 | 0.01 | 0.30 | 0.30 | 91 | 1015.1 |
| 20260830213051 | 66 | 211 | 1.0 | 7.0 | 0.11 | 0.28 | 0.28 | 91 | 1015.3 |
| 20260830211555 | 66 | 215 | 2.0 | 5.0 | 0.11 | 0.28 | 0.28 | 91 | 1015.2 |
| 20260830210050 | 66 | 228 | 1.0 | 7.0 | 0.11 | 0.28 | 0.28 | 91 | 1014.9 |
| 20260830204549 | 66 | 232 | 2.0 | 6.0 | 0.11 | 0.28 | 0.28 | 91 | 1014.8 |
| 20260830203047 | 66 | 169 | 3.0 | 9.0 | 0.00 | 0.18 | 0.18 | 92 | 1014.8 |
| 20260830201547 | 66 | 159 | 2.0 | 12.0 | 0.00 | 0.18 | 0.18 | 92 | 1014.8 |
| 20260830200048 | 66 | 204 | 2.0 | 8.0 | 0.00 | 0.18 | 0.18 | 92 | 1014.8 |
| 20260830194544 | 66 | 169 | 3.0 | 9.0 | 0.00 | 0.18 | 0.18 | 92 | 1015.0 |
| 20260830193046 | 66 | 181 | 3.0 | 8.0 | 0.00 | 0.18 | 0.18 | 93 | 1015.1 |
| 20260830191546 | 65 | 219 | 3.0 | 10.0 | 0.00 | 0.18 | 0.18 | 92 | 1015.1 |
| 20260830190041 | 65 | 170 | 3.0 | 8.0 | 0.00 | 0.18 | 0.18 | 92 | 1015.2 |
| 20260830184540 | 65 | 148 | 4.0 | 9.0 | 0.00 | 0.18 | 0.18 | 92 | 1015.1 |
| 20260830183037 | 65 | 176 | 2.0 | 4.0 | 0.00 | 0.18 | 0.18 | 92 | 1016.3 |
| 20260830181536 | 65 | 167 | 1.0 | 4.0 | 0.00 | 0.18 | 0.18 | 93 | 1016.1 |
| 20260830180051 | 65 | 146 | 3.0 | 6.0 | 0.00 | 0.18 | 0.18 | 92 | 1015.8 |
| 20260830174537 | 65 | 155 | 5.0 | 9.0 | 0.00 | 0.18 | 0.18 | 92 | 1015.7 |
| 20260830173048 | 65 | 150 | 4.0 | 7.0 | 0.00 | 0.18 | 0.18 | 92 | 1015.8 |
| 20260830171533 | 65 | 167 | 3.0 | 7.0 | 0.01 | 0.18 | 0.18 | 92 | 1016.2 |
| 20260830170030 | 65 | 167 | 3.0 | 6.0 | 0.02 | 0.18 | 0.18 | 92 | 1016.3 |
| 20260830164527 | 65 | 145 | 2.0 | 7.0 | 0.02 | 0.18 | 0.18 | 92 | 1016.5 |
| 20260830163025 | 65 | 152 | 4.0 | 9.0 | 0.03 | 0.18 | 0.18 | 92 | 1016.4 |
| 20260830161523 | 65 | 126 | 3.0 | 9.0 | 0.03 | 0.17 | 0.17 | 92 | 1016.5 |
| 20260830160021 | 64 | 175 | 4.0 | 8.0 | 0.03 | 0.16 | 0.16 | 92 | 1016.5 |
| 20260830154520 | 64 | 129 | 3.0 | 8.0 | 0.04 | 0.16 | 0.16 | 92 | 1016.8 |
| 20260830153017 | 64 | 188 | 1.0 | 7.0 | 0.04 | 0.15 | 0.15 | 92 | 1017.1 |
| 20260830151517 | 64 | 155 | 2.0 | 4.0 | 0.04 | 0.14 | 0.14 | 92 | 1017.3 |
| 20260830150026 | 64 | 184 | 1.0 | 8.0 | 0.03 | 0.13 | 0.13 | 91 | 1017.2 |
| 20260830144518 | 65 | 223 | 2.0 | 8.0 | 0.02 | 0.12 | 0.12 | 92 | 1017.3 |
| 20260830143014 | 65 | 175 | 3.0 | 9.0 | 0.01 | 0.11 | 0.11 | 91 | 1016.9 |
| 20260830141533 | 65 | 159 | 4.0 | 9.0 | 0.01 | 0.10 | 0.10 | 91 | 1016.8 |
| 20260830140012 | 65 | 126 | 6.0 | 9.0 | 0.02 | 0.10 | 0.10 | 91 | 1016.8 |
| 20260830134511 | 64 | 144 | 3.0 | 8.0 | 0.04 | 0.10 | 0.10 | 91 | 1017.1 |
| 20260830133009 | 64 | 146 | 3.0 | 7.0 | 0.06 | 0.10 | 0.10 | 91 | 1016.9 |
| 20260830131513 | 64 | 101 | 2.0 | 8.0 | 0.05 | 0.09 | 0.09 | 91 | 1017.1 |
| 20260830130007 | 65 | 119 | 5.0 | 8.0 | 0.04 | 0.08 | 0.08 | 91 | 1016.9 |
| 20260830124506 | 65 | 134 | 5.0 | 9.0 | 0.03 | 0.06 | 0.06 | 91 | 1017.1 |
| 20260830123012 | 65 | 171 | 0.0 | 4.0 | 0.02 | 0.04 | 0.04 | 91 | 1017.2 |
| 20260830121505 | 65 | 153 | 1.0 | 6.0 | 0.03 | 0.04 | 0.04 | 91 | 1017.1 |
| 20260830120005 | 64 | 138 | 4.0 | 7.0 | 0.03 | 0.04 | 0.04 | 91 | 1016.4 |
| 20260830114508 | 64 | 150 | 2.0 | 6.0 | 0.03 | 0.03 | 0.03 | 91 | 1016.7 |
| 20260830113059 | 64 | 123 | 3.0 | 7.0 | 0.02 | 0.02 | 0.02 | 90 | 1016.6 |
| 20260830111559 | 64 | 106 | 2.0 | 6.0 | 0.01 | 0.01 | 0.01 | 91 | 1016.4 |